#timestamp,LO_Frequency,Hit,StdDev 
1515434415.3,286046998.1,N
1515434435.1,286046998.6,N
1515434455.9,286046999.6,N
1515434475.7,286046999.4,N
1515434495.5,286047002.3,N
1515434515.4,286046999.9,N
1515434535.2,286046999.1,N
1515434555.1,286046998.4,N
1515434556.0,286046998.4,N
1515434575.8,286046999.3,N
1515434595.6,286046996.5,N
1515434615.5,286046996.9,N
1515434635.3,286046999.0,N
1515434655.2,286046997.0,N
1515434675.9,286046999.5,N
1515434695.7,286046998.7,N
1515434715.6,286047000.7,N
1515434735.4,286047001.2,N
1515434755.2,286046999.2,N
1515434775.1,286046998.3,N
1515434776.0,286046998.3,N
1515434795.8,286046996.5,N
1515434815.7,286046998.7,N
1515434835.5,286047001.0,N
1515434855.3,286046999.0,N
1515434875.2,286046996.2,N
1515434895.0,286046996.1,N
1515434895.9,286046996.1,N
1515434915.8,286046995.3,Y
1515434935.6,286046997.3,P
1515434955.4,286046999.4,N
1515434975.3,286046997.0,P
1515434995.1,286046998.8,N
1515435015.9,286046998.5,N
1515435035.7,286046998.1,N
1515435055.5,286046998.8,N
1515435075.4,286046998.4,N
1515435095.2,286047000.8,N
1515435115.1,286046998.9,N
1515435116.0,286046998.9,N
1515435135.8,286046998.4,N
1515435155.6,286046998.9,N
1515435175.5,286046999.0,N
1515435195.3,286046999.1,N
1515435215.1,286046999.0,N
1515435235.9,286047001.1,N
1515435255.7,286046997.1,Y
1515435275.6,286046998.3,P
1515435295.4,286047001.1,P
1515435315.2,286047000.4,N
1515435335.1,286047000.4,N
1515435336.0,286047000.4,N
1515435355.8,286046998.4,N
1515435375.7,286046999.1,N
1515435395.5,286046999.0,N
1515435415.3,286046997.3,N
1515435435.2,286046997.3,N
1515435455.0,286046998.0,N
1515435455.9,286046998.0,N
1515435475.8,286046995.0,Y
1515435495.6,286046999.5,P
1515435515.4,286046998.7,P
1515435535.3,286046998.3,P
1515435555.1,286047000.9,N
1515435575.8,286046997.0,Y
1515435595.7,286046999.2,P
1515435615.5,286046998.9,P
1515435635.4,286047001.1,P
1515435655.2,286047000.3,N
1515435675.0,286047001.0,N
1515435675.9,286047001.0,N
1515435695.8,286047001.7,N
1515435715.6,286047002.3,N
1515435735.5,286046999.8,N
1515435755.3,286047000.6,N
1515435775.1,286047000.1,N
1515435795.9,286046998.1,N
1515435815.7,286047000.4,N
1515435835.5,286047002.6,N
1515435855.4,286047002.5,N
1515435875.2,286047001.5,N
1515435895.1,286047000.7,N
1515435896.0,286047000.7,N
1515435915.8,286046999.3,N
1515435935.6,286046999.9,N
1515435955.5,286047001.8,N
1515435975.3,286047004.3,Y
1515435995.2,286047001.7,P
1515436015.9,286047003.1,P
1515436035.7,286047004.3,P
1515436055.6,286047001.5,N
1515436075.4,286047004.1,Y
1515436095.2,286047000.2,P
1515436115.1,286047002.2,N
1515436116.0,286047002.2,N
1515436135.8,286047002.8,Y
1515436155.7,286047000.8,P
1515436175.5,286047000.4,N
1515436195.3,286047000.8,N
1515436215.2,286047000.2,N
1515436235.0,286047002.7,Y
1515436235.9,286047002.7,P
1515436255.8,286047000.7,N
1515436275.6,286047000.6,N
1515436295.4,286047001.0,N
1515436315.3,286046998.3,N
1515436335.1,286046996.7,N
1515436355.9,286046999.3,N
1515436375.7,286046999.6,N
1515436395.5,286046997.8,N
1515436415.4,286046997.3,N
1515436435.2,286046997.0,N
1515436455.0,286046999.5,N
1515436455.9,286046999.5,N
1515436475.8,286046999.4,N
1515436495.6,286046997.1,N
1515436515.5,286046997.9,N
1515436535.3,286046995.5,N
1515436555.1,286046995.0,N
1515436575.9,286046998.9,N
1515436595.7,286046996.5,N
1515436615.5,286046996.6,N
1515436635.4,286046998.2,N
1515436655.2,286046998.3,N
1515436675.1,286046999.6,N
1515436676.0,286046999.6,N
1515436695.8,286046998.8,N
1515436715.6,286046998.5,N
1515436735.5,286046998.8,N
1515436755.3,286046998.2,N
1515436775.2,286047001.2,N
1515436795.9,286046999.9,N
1515436815.7,286047000.7,N
1515436835.6,286046998.1,N
1515436855.4,286047000.6,N
1515436875.2,286047000.1,N
1515436895.1,286047000.0,N
1515436896.0,286047000.0,N
1515436915.8,286047000.1,N
1515436935.7,286047004.1,N
1515436955.5,286047002.3,N
1515436975.3,286047000.6,N
1515436995.2,286047000.0,N
1515437015.0,286047000.2,N
1515437015.9,286047000.2,N
1515437065.8,286046998.2,E
1515437075.7,286047001.1,N
1515437095.5,286047000.1,P
1515437115.4,286046999.7,N
1515437135.2,286046999.8,N
1515437155.1,286047001.9,Y
1515437156.0,286047001.9,P
1515437175.8,286047000.3,N
1515437195.6,286047004.4,P
1515437215.5,286047004.0,N
1515437235.3,286047001.3,N
1515437255.2,286047003.2,N
1515437275.9,286047003.2,N
1515437295.7,286047005.6,Y
1515437315.6,286047000.7,P
1515437335.4,286046998.7,N
1515437355.2,286046999.3,N
1515437375.1,286046996.6,N
1515437376.0,286046996.6,N
1515437395.8,286046996.7,N
1515437415.7,286046999.5,N
1515437435.5,286046999.0,N
1515437455.3,286046999.6,N
1515437475.2,286046996.5,N
1515437495.0,286046998.7,N
1515437495.9,286046998.7,N
1515437515.8,286046998.1,N
1515437535.6,286046998.2,N
1515437555.4,286046998.5,N
1515437575.3,286046999.1,N
1515437595.1,286046996.9,N
1515437615.8,286046997.5,N
1515437635.7,286046997.0,N
1515437655.5,286046998.9,N
1515437675.4,286046996.6,N
1515437695.2,286046997.0,N
1515437715.0,286046997.5,N
1515437715.9,286046997.5,N
1515437735.8,286046997.0,N
1515437755.6,286046996.7,N
1515437775.4,286046999.6,N
1515437795.3,286046998.9,N
1515437815.1,286047001.0,N
1515437835.9,286046998.4,N
1515437855.7,286046999.3,N
1515437875.5,286046998.7,N
1515437895.4,286046998.9,N
1515437915.2,286046999.3,N
1515437935.1,286046998.4,N
1515437936.0,286046998.4,N
1515437955.8,286046999.4,N
1515437975.6,286046999.0,N
1515437995.5,286046998.8,N
